Wind_Speed
12 10 9 9 8 7 6 4 4 3 3 4 5 6 7 9 11 4 4 1 3 7 3 3 5 7 9 9 8 6 10 11 9 9 3 2 4 7 2 3 3 5 8 10 13
13 12 11 10 9 8 6 5 4 3 3 3 4 5 8 12 5 5 1 5 5 3 4 7 6 8 10 12 7 11 11 13 5 1 2 3 2 5 3 5 8 8 11 11 10
13 12 11 10 9 8 7 6 4 4 3 4 5 7 12 7 7 5 3 3 6 4 2 3 4 8 11 9 10 15 14 6 6 3 3 4 5 2 1 10 10 11 13 13 3
12 11 10 9 8 7 6 6 5 4 4 5 6 10 8 3 1 4 2 5 8 4 4 6 7 9 9 11 7 11 16 6 9 6 5 7 7 8 3 3 6 8 8 8 8
13 11 10 9 8 7 6 5 5 5 5 5 7 10 3 6 8 1 5 8 6 3 5 4 6 5 8 8 9 13 7 10 9 7 9 4 9 12 10 10 9 2 8 12 16
17 13 11 9 8 8 7 7 6 5 5 5 7 9 4 5 3 4 6 6 3 3 5 4 1 2 3 4 11 4 9 10 9 10 5 10 12 6 11 13 12 10 3 12 15
21 17 12 11 10 9 10 11 9 7 6 6 7 6 5 7 3 3 5 2 3 1 5 3 1 6 2 7 2 4 10 12 12 10 4 7 10 16 11 8 13 14 15 13 15
27 21 16 12 11 11 13 15 7 8 6 5 7 3 3 2 2 4 6 3 3 3 3 1 4 3 4 2 6 10 7 11 11 9 6 10 4 11 11 10 14 10 10 13 18
32 24 20 13 11 11 13 10 5 4 4 4 2 5 7 1 3 2 4 3 6 5 4 1 3 2 5 10 8 7 6 8 9 7 1 9 3 14 10 12 12 7 13 12 17
34 29 24 15 9 9 12 2 3 2 1 2 4 5 5 4 3 1 3 3 3 8 6 5 4 7 6 8 6 6 6 5 5 8 1 11 9 12 12 3 13 13 13 15 17
35 31 27 17 7 6 7 3 5 5 7 6 5 4 1 1 2 6 5 6 6 6 8 4 8 7 3 1 7 6 6 5 4 5 8 10 12 13 12 13 13 12 13 15 18
37 33 28 18 5 3 2 4 5 4 4 4 6 6 7 4 5 6 6 6 6 5 4 7 9 3 4 5 7 11 10 11 7 4 10 12 16 18 17 15 10 13 12 14 17
38 34 29 17 3 3 3 1 1 4 5 4 3 4 2 7 2 6 7 2 3 4 3 6 7 2 6 8 8 9 11 6 8 9 11 16 11 11 12 12 12 13 13 14 16
39 36 30 14 3 3 5 1 4 3 5 8 8 5 7 4 4 1 3 4 4 3 2 3 4 4 7 4 7 5 1 3 6 12 11 15 3 7 7 11 10 10 11 13 14
41 39 27 10 3 5 4 4 3 4 5 9 8 5 3 5 8 4 1 5 2 3 6 6 2 2 2 4 4 6 2 3 4 9 7 14 10 10 10 4 6 7 9 11 11
41 41 18 2 4 2 2 2 4 6 3 9 8 10 11 7 4 6 4 1 2 3 2 5 2 3 4 1 2 4 5 7 8 10 11 4 8 10 8 7 5 3 7 9 10
41 29 7 4 2 1 2 5 5 6 4 8 10 9 13 8 7 5 5 3 2 4 4 5 3 4 4 7 6 7 7 9 8 9 7 3 7 8 6 8 8 4 3 7 9
42 13 4 4 3 2 7 5 6 1 5 3 3 7 10 10 5 6 7 6 3 4 2 3 8 0 5 5 8 5 7 8 10 10 5 4 4 5 7 8 10 6 1 3 6
33 5 1 4 5 4 7 7 3 2 2 2 6 10 9 8 4 8 5 2 2 1 4 3 2 4 4 3 4 2 7 7 9 7 10 2 5 6 10 10 9 6 3 2 4
14 5 6 3 3 6 6 4 4 2 4 4 7 5 10 10 9 7 9 2 4 1 2 3 5 2 2 4 2 6 3 5 7 7 10 5 4 2 15 14 11 10 7 3 2
6 3 7 1 3 5 6 3 3 2 4 3 3 4 2 5 7 6 4 5 1 3 1 1 3 5 6 1 7 4 8 4 5 5 9 10 2 7 9 13 11 6 3 2 5
7 2 6 1 5 2 4 1 2 4 3 4 2 2 3 3 5 5 6 2 1 2 3 2 3 7 5 3 2 2 4 5 6 8 4 7 5 4 7 10 7 4 1 5 6
7 3 2 2 5 6 2 4 3 3 2 4 4 1 2 4 3 4 4 3 2 1 3 4 2 5 4 6 6 4 1 1 1 3 10 9 2 5 8 9 6 1 3 5 7
4 3 2 1 2 4 2 4 4 1 2 2 2 3 6 5 1 5 6 3 3 4 3 2 2 6 7 5 4 4 4 2 4 3 10 7 5 8 9 9 6 0 4 6 6
2 3 3 2 3 5 2 2 5 5 2 4 4 7 5 3 5 5 5 8 6 6 2 2 6 5 3 2 4 6 6 6 9 6 6 4 4 3 8 6 2 2 5 7 8
4 3 1 5 5 6 3 5 6 4 3 8 6 6 5 4 4 4 6 6 6 7 4 2 3 5 7 4 6 8 5 4 3 2 1 2 3 4 7 3 1 4 7 8 9
3 0 4 1 3 5 2 3 3 3 2 2 3 6 6 6 6 7 5 4 1 4 6 4 2 2 5 1 5 8 8 6 1 2 3 5 8 6 5 2 4 6 4 7 8
Wind_Direction
32 25 19 13 10 11 12 10 2 347 338 334 328 325 320 316 309 263 239 304 208 198 275 229 212 209 208 220 229 244 251 251 229 228 135 246 343 65 123 144 83 92 72 105 132
39 37 31 27 24 17 15 13 8 357 346 345 343 332 323 324 275 204 334 167 114 142 221 214 199 195 203 217 205 224 235 244 26 30 246 196 300 16 193 146 125 147 108 111 141
33 34 35 34 36 36 31 27 25 21 16 6 349 336 327 326 248 54 308 209 185 139 209 210 220 222 217 220 202 219 248 225 177 212 298 254 174 18 48 83 54 40 25 34 5
23 24 24 27 30 30 28 23 17 5 354 349 346 340 335 256 101 36 351 173 168 201 213 191 202 202 216 206 194 239 239 271 199 177 227 229 245 223 229 0 357 355 15 53 354
12 8 8 6 9 12 10 0 351 340 335 339 342 343 327 206 87 62 85 149 168 221 226 206 205 206 208 208 204 230 196 231 243 229 244 252 233 251 261 263 281 86 345 36 43
13 359 350 348 350 351 349 342 323 309 309 318 333 340 264 151 106 146 139 156 190 206 195 205 145 306 159 201 224 201 246 235 239 241 232 241 245 230 254 267 249 228 94 59 56
15 5 347 333 332 333 328 323 304 283 283 303 328 336 257 74 144 167 182 229 184 162 151 155 60 256 174 168 155 187 224 218 226 235 243 254 249 233 273 277 260 242 88 69 68
16 9 355 333 323 324 325 328 309 250 259 295 324 301 58 119 223 253 206 185 178 166 101 95 252 298 268 84 197 215 236 213 166 207 198 223 249 22 340 275 238 228 68 59 54
12 8 360 338 324 320 326 339 351 196 236 303 309 278 104 238 196 118 185 116 120 138 137 29 240 319 191 213 195 205 211 224 142 208 268 235 3 5 335 250 260 51 67 63 60
6 5 360 345 321 316 321 331 63 92 212 276 255 233 171 76 83 147 169 179 141 143 163 216 231 240 209 225 236 167 197 193 176 148 236 83 51 24 9 143 92 75 75 72 64
2 359 359 347 319 309 316 263 219 179 211 294 348 317 90 342 212 186 177 186 181 223 239 199 263 226 270 301 319 289 273 258 209 92 92 89 70 49 47 77 81 90 88 76 63
358 355 355 350 311 276 269 279 40 2 285 214 261 269 269 275 200 176 186 220 208 224 195 216 231 26 224 210 258 240 236 234 230 173 133 113 85 64 49 41 82 96 89 86 81
355 351 350 347 293 201 228 10 249 332 261 147 195 232 174 200 130 127 207 201 239 198 197 294 57 172 217 221 232 226 252 259 274 166 143 138 106 100 76 71 82 82 83 72 71
351 348 344 347 168 173 179 195 272 253 248 140 186 160 174 225 144 39 220 292 194 26 199 48 71 158 189 178 246 195 138 235 184 203 215 210 235 111 102 83 73 77 68 70 67
348 344 336 324 305 230 111 329 149 208 203 146 148 117 179 232 132 128 191 224 357 71 256 92 106 206 222 30 296 56 232 270 245 248 279 188 249 122 144 108 83 74 80 73 60
345 340 328 337 216 215 300 179 233 231 176 158 163 187 181 183 139 137 186 146 354 277 290 99 101 359 28 26 337 138 221 220 241 259 246 229 259 157 171 168 128 68 59 45 43
344 339 315 198 109 209 231 214 223 254 137 166 183 189 197 171 165 207 183 162 305 245 174 173 141 111 355 247 186 231 246 266 245 226 250 38 274 52 116 123 134 119 53 25 18
345 350 14 224 247 274 201 213 233 49 194 97 202 187 202 176 178 173 192 173 127 258 242 281 174 14 1 341 325 315 319 284 286 290 322 119 272 93 129 128 130 133 96 4 12
348 345 339 314 226 233 223 216 236 219 52 217 174 201 185 189 227 196 225 201 96 269 288 241 166 131 64 14 296 139 255 14 289 240 266 128 110 165 164 154 148 159 182 286 9
339 317 35 359 157 237 227 260 246 235 319 226 233 249 208 189 203 216 187 130 134 352 313 85 280 160 89 253 169 283 25 250 216 276 274 168 258 280 185 179 173 172 185 144 22
331 254 21 293 267 216 229 223 245 277 286 259 210 179 220 184 233 207 178 124 186 113 185 267 271 134 225 293 328 235 233 233 300 303 294 295 73 15 174 178 177 156 129 53 12
322 217 11 290 214 238 216 178 360 265 238 230 257 125 180 167 185 200 193 19 71 215 223 78 299 291 348 127 336 348 313 277 271 264 243 302 304 8 131 140 156 139 140 33 6
334 310 5 287 241 202 154 247 255 262 221 217 182 249 178 150 163 169 151 81 131 196 184 160 187 278 184 185 199 259 61 72 309 281 269 290 324 123 134 153 169 221 27 6 359
308 296 122 157 29 318 303 235 222 193 228 268 145 169 162 165 190 170 155 109 111 100 36 289 222 270 277 5 338 233 232 257 277 262 280 274 103 165 181 186 182 243 9 1 352
357 60 19 331 125 323 266 303 256 204 215 211 187 233 190 184 190 192 153 147 145 150 143 272 268 268 281 273 264 286 271 274 263 292 273 341 317 93 173 183 103 349 358 347 351
329 337 313 283 293 277 182 217 262 172 255 191 243 173 183 207 213 210 194 199 194 177 181 159 262 272 258 228 262 263 250 255 259 234 192 259 204 102 107 132 292 349 344 342 344
18 291 283 222 234 253 229 286 281 220 125 295 195 171 142 81 73 58 51 62 105 213 185 201 199 245 272 280 273 255 239 218 189 218 301 275 60 144 166 242 346 335 340 336 342
Height
809 808 806 805 803 802 800 799 799 798 797 797 796 795 794 793 791 790 785 785 785 785 785 784 783 781 780 773 773 770 782 782 773 778 771 763 762 758 761 760 762 762 765 771 778
811 809 807 805 803 802 801 800 799 798 797 796 795 794 793 791 790 785 786 785 784 784 784 781 778 778 774 772 771 774 780 773 761 766 770 768 763 762 761 762 765 763 769 775 779
813 810 808 806 804 803 801 800 799 798 797 796 795 793 791 789 786 781 784 784 784 784 785 783 780 775 774 769 770 770 778 762 770 768 766 767 767 762 767 774 774 780 777 779 778
814 811 809 807 805 803 802 800 799 798 797 795 794 792 789 790 788 783 782 783 784 785 784 781 778 778 776 779 769 781 767 764 764 770 769 771 760 766 767 769 765 767 771 776 783
814 812 810 808 806 803 802 800 799 798 796 795 793 791 790 783 781 784 783 783 785 785 781 777 776 774 778 772 776 779 769 769 764 768 767 768 769 767 764 759 759 766 772 773 778
814 811 809 807 805 803 801 799 798 797 795 794 792 791 789 783 785 785 785 785 785 783 781 779 775 774 775 775 778 771 769 770 767 767 770 775 770 768 767 759 760 763 773 781 784
814 810 807 805 803 802 799 798 796 795 794 793 792 790 786 782 784 785 785 785 785 784 781 782 780 777 774 779 773 774 783 774 772 769 772 770 780 777 763 757 765 763 779 788 788
814 810 806 803 801 799 797 794 792 791 792 792 791 791 780 783 784 784 784 784 784 784 783 783 782 777 774 774 776 779 778 784 768 770 768 774 789 782 775 769 766 765 775 790 798
814 809 805 801 799 797 795 793 790 790 791 791 791 789 781 782 781 782 782 781 783 784 784 784 780 777 776 779 784 780 782 783 780 766 769 774 783 789 776 771 769 776 790 794 799
813 808 803 799 797 796 794 792 791 790 791 790 790 789 778 778 779 781 782 782 780 781 782 781 777 779 776 780 790 785 785 783 780 776 774 784 804 794 782 771 782 794 800 805 812
812 806 801 797 795 794 793 792 791 789 789 781 780 780 776 778 779 779 780 780 778 779 785 780 786 786 777 778 780 781 784 785 775 776 789 804 810 808 795 792 803 809 812 815 818
810 804 799 795 793 792 792 786 787 790 785 779 781 781 779 779 777 776 779 779 780 783 781 787 788 777 776 780 785 784 788 786 775 778 786 805 816 826 829 825 816 816 816 818 819
809 802 797 793 791 791 791 789 790 789 783 778 776 776 774 777 775 775 775 774 779 783 782 783 779 780 783 782 789 784 785 781 785 783 783 798 815 823 836 832 828 827 828 828 824
807 801 796 792 793 790 788 789 789 789 783 785 777 773 774 771 779 775 774 775 776 782 781 781 776 779 779 783 781 786 779 782 784 791 797 782 802 826 837 841 836 833 836 832 832
805 799 793 790 790 787 790 789 788 788 804 777 774 770 769 773 772 778 776 772 781 782 782 787 783 782 782 786 780 788 779 781 782 783 784 787 794 817 829 845 847 838 837 839 843
801 795 789 788 789 789 788 788 789 795 805 780 768 774 775 772 774 773 773 772 774 780 777 780 777 779 781 782 781 781 783 782 781 780 799 780 790 797 812 824 853 850 844 842 842
797 789 786 786 784 787 788 786 796 798 775 782 777 771 771 778 780 777 780 784 787 796 794 786 785 781 781 784 778 782 787 797 796 791 795 792 796 812 824 832 849 855 852 851 850
794 787 785 786 786 786 786 787 808 782 776 770 771 771 780 775 779 782 785 789 788 786 791 796 805 788 785 788 790 785 789 798 816 802 787 795 801 810 830 838 848 856 858 857 855
791 789 788 787 784 786 780 796 786 779 773 776 775 780 782 779 780 784 785 786 790 790 798 797 798 787 789 786 789 785 795 787 798 793 803 788 817 827 833 841 850 855 855 853 846
793 790 786 786 785 785 783 795 785 777 776 773 782 777 781 779 786 785 787 790 794 792 789 794 805 791 791 788 787 789 788 802 791 818 814 791 800 795 826 831 838 843 840 843 845
795 784 789 787 788 780 787 783 780 772 776 779 776 781 779 784 780 783 786 795 792 794 790 794 800 797 793 797 797 792 792 796 797 801 810 808 793 807 807 818 829 833 841 843 844
798 784 789 788 784 781 782 783 790 776 772 774 773 775 778 783 784 786 791 791 797 792 796 799 800 805 802 801 801 798 798 798 809 811 800 807 807 812 808 818 830 837 841 843 847
801 793 789 789 784 781 782 782 780 778 777 775 778 775 778 783 795 789 793 799 797 796 797 799 804 810 807 805 802 804 806 806 806 806 810 813 805 820 824 830 835 838 840 843 847
804 794 786 786 788 788 787 782 782 778 779 779 778 777 781 785 785 793 795 800 800 800 812 805 806 807 812 805 805 810 808 807 809 824 805 797 809 826 829 831 834 837 841 843 846
807 805 812 791 789 794 792 786 783 783 777 778 782 777 780 792 788 790 791 800 801 811 804 803 808 807 807 810 810 809 810 808 811 806 817 806 811 813 822 828 833 839 842 844 845
812 811 807 801 800 796 797 782 783 782 784 780 782 781 780 787 786 792 790 793 795 800 801 804 806 808 809 810 811 814 810 813 813 815 816 817 816 819 827 833 836 839 844 846 847
822 822 816 799 794 794 784 785 783 782 785 781 777 781 784 792 789 790 791 792 792 796 802 805 808 815 814 814 813 816 805 811 814 815 815 817 817 824 831 835 838 843 847 848 849